Location: Newark
(43.4306°N, 0.3089°E)
Time: 14:47:20
(UTC+00:00)

S-56A Canister/Altair - Pass Details

Date: 25 August 2019
Orbit: 633 x 2499 km, 38.9° (Epoch: 17 September)

Event Time Altitude Azimuth Distance (km) Brightness Sun altitude
Rises 18:25:30 0° 209° (SSW) 3,962 11.4 2.9°
Reaches altitude 10° 18:29:41 10° 189° (S) 2,660 10.3 2.2°
Maximum altitude 18:33:12 16° 153° (SSE) 2,020 9.3 1.5°
Drops below altitude 10° 18:36:14 10° 116° (ESE) 2,222 9.3 1.0°
Sets 18:39:15 0° 93° (E) 3,005 9.9 0.5°
